This demonstration page uses our WeatherBlox Daily Observations layout. Learn more.

Left ArrowRight Arrow

41.86663, -103.66717

Hourly Observations for September 26, 2021

Temp ( °F °C ) Dew Point ( °F °C ) Humidity (%) Winds ( mph kmh ) Pressure ( in mb ) Visibility ( mi km ) Precip ( " mm )
12:53 am 00:53 Clear 54 12.2 36 2.2 51 51 undefined N/A 29.78 1008 10 16 N/A
1:53 am 01:53 Clear 49 9.4 36 2.2 61 61 undefined N/A 29.77 1008 10 16 N/A
2:53 am 02:53 Clear 51 10.6 35 1.7 54 54 N 6 9 29.76 1008 10 16 N/A
3:53 am 03:53 Clear 48 8.9 35 1.7 61 61 NNW 5 7 29.77 1008 10 16 N/A
4:53 am 04:53 Clear 47 8.3 35 1.7 63 63 NNW 5 7 29.78 1008 10 16 N/A
5:53 am 05:53 Clear 51 10.6 34 1.1 52 52 NW 12 19 29.78 1009 10 16 N/A
6:53 am 06:53 Sunny 51 10.6 32 undefined 48 48 NW 5 7 29.83 1010 10 16 N/A
7:53 am 07:53 Sunny 58 14.4 33 0.6 39 39 WNW 12 19 29.83 1010 10 16 N/A
8:53 am 08:53 Sunny 66 18.9 35 1.7 32 32 NW 14 22 29.84 1011 10 16 N/A
9:53 am 09:53 Sunny 74 23.3 36 2.2 25 25 WNW 13 20 29.84 1010 10 16 N/A
10:53 am 10:53 Sunny 81 27.2 36 2.2 20 20 WNW 14 22 29.83 1010 10 16 N/A
11:53 am 11:53 Sunny 86 30 35 1.7 16 16 W 10 17 29.81 1010 10 16 N/A
12:53 pm 12:53 Sunny 89 31.7 34 1.1 14 14 WNW 9 15 29.78 1009 10 16 N/A
1:53 pm 13:53 Sunny 91 32.8 34 1.1 13 13 WNW 6 9 29.77 1008 10 16 N/A
2:53 pm 14:53 Sunny 91 32.8 32 undefined 12 12 W 6 9 29.76 1008 10 16 N/A
3:53 pm 15:53 Sunny 91 32.8 32 undefined 12 12 WSW 8 13 29.76 1008 10 16 N/A
4:53 pm 16:53 Sunny 90 32.2 31 -0.6 12 12 WSW 7 11 29.76 1008 10 16 N/A
5:53 pm 17:53 Sunny 88 31.1 32 undefined 13 13 WSW 3 6 29.75 1008 10 16 N/A
6:53 pm 18:53 Clear 79 26.1 35 1.7 20 20 N N/A 29.78 1008 10 16 N/A
7:53 pm 19:53 Clear 70 21.1 37 2.8 30 30 S 3 6 29.79 1009 10 16 N/A
8:53 pm 20:53 Clear 63 17.2 41 5 45 45 ENE 3 6 29.80 1009 10 16 N/A
9:53 pm 21:53 Clear 61 16.1 39 3.9 44 44 N N/A 29.80 1009 10 16 N/A
10:53 pm 22:53 Clear 58 14.4 40 4.4 51 51 N N/A 29.80 1009 10 16 N/A
11:53 pm 23:53 Clear 56 13.3 38 3.3 51 51 N N/A 29.80 1009 10 16 N/A

Powered by AerisWeather